Back to catalog

FENGYUN 1C DEB

AlivePO
NORAD 35091·DEBRIS·🇨🇳 China

Launched May 10, 1999 from Taiyuan Satellite Launch Center

Loading…

Next Passes (next 24 hours)

TLE

FreshSource: Space-Track

Epoch: Sep 14, 2026, 06:47 UTC

1 35091U 99025DJT 26257.28294613  .00008471  00000-0  14501-2 0  9993
2 35091  98.6059  19.2360 0044019 155.6267 204.7032 14.68443430939633

Track FENGYUN 1C DEB in real time with AllMySat

Download on the App Store